Time,TemperatureF,DewpointF,PressureIn,WindDirection,WindDirectionDegrees,WindSpeedMPH,WindSpeedGustMPH,Humidity,HourlyPrecipIn,Conditions,Clouds,dailyrainin,SoftwareType,DateUTC
2013-07-16 00:01:00,93.0,60.0,29.74,East,84,8.0,11.0,33,0.00,,,0.00,,2013-07-16 07:01:00,
2013-07-16 00:11:00,93.0,60.0,29.74,SSW,200,5.0,5.0,33,0.00,,,0.00,,2013-07-16 07:11:00,
2013-07-16 00:32:00,92.0,59.0,29.75,SE,124,4.0,4.0,33,0.00,,,0.00,,2013-07-16 07:32:00,
2013-07-16 00:43:00,92.0,59.0,29.75,SE,135,3.0,4.0,33,0.00,,,0.00,,2013-07-16 07:43:00,
2013-07-16 00:52:00,92.0,60.0,29.75,SE,134,4.0,4.0,34,0.00,,,0.00,,2013-07-16 07:52:00,
2013-07-16 01:01:00,92.0,60.0,29.75,ESE,118,3.0,6.0,34,0.00,,,0.00,,2013-07-16 08:01:00,
2013-07-16 01:11:00,92.0,60.0,29.75,SE,135,3.0,3.0,34,0.00,,,0.00,,2013-07-16 08:11:00,
2013-07-16 01:32:00,90.0,60.0,29.75,South,179,3.0,3.0,37,0.00,,,0.00,,2013-07-16 08:32:00,
2013-07-16 01:43:00,90.0,60.0,29.75,ENE,75,2.0,0.0,37,0.00,,,0.00,,2013-07-16 08:43:00,
2013-07-16 01:52:00,90.0,60.0,29.75,East,97,1.0,1.0,37,0.00,,,0.00,,2013-07-16 08:52:00,
2013-07-16 02:01:00,89.0,59.0,29.75,ENE,62,0.0,0.0,37,0.00,,,0.00,,2013-07-16 09:01:00,
2013-07-16 02:12:00,89.0,60.0,29.75,ENE,62,0.0,0.0,38,0.00,,,0.00,,2013-07-16 09:12:00,
2013-07-16 02:22:00,94.0,60.0,29.73,ESE,111,6.0,8.0,32,0.00,,,0.00,,2013-07-16 09:22:00,
2013-07-16 02:32:00,88.0,60.0,29.75,ESE,104,2.0,2.0,39,0.00,,,0.00,,2013-07-16 09:32:00,
2013-07-16 02:42:00,88.0,60.0,29.75,ESE,110,1.0,0.0,39,0.00,,,0.00,,2013-07-16 09:42:00,
2013-07-16 02:52:00,88.0,60.0,29.75,ENE,66,0.0,0.0,39,0.00,,,0.00,,2013-07-16 09:52:00,
2013-07-16 03:01:00,88.0,60.0,29.75,ENE,66,0.0,0.0,39,0.00,,,0.00,,2013-07-16 10:01:00,
2013-07-16 03:11:00,88.0,60.0,29.74,ESE,110,3.0,3.0,39,0.00,,,0.00,,2013-07-16 10:11:00,
2013-07-16 03:31:00,88.0,55.0,29.74,SE,128,0.0,0.0,33,0.00,,,0.00,,2013-07-16 10:31:00,
2013-07-16 03:42:00,88.0,54.0,29.74,East,96,0.0,0.0,32,0.00,,,0.00,,2013-07-16 10:42:00,
2013-07-16 03:52:00,88.0,52.0,29.74,ENE,75,0.0,0.0,29,0.00,,,0.00,,2013-07-16 10:52:00,
2013-07-16 04:01:00,88.0,49.0,29.75,ENE,75,0.0,0.0,26,0.00,,,0.00,,2013-07-16 11:01:00,
2013-07-16 05:32:00,87.0,42.0,29.76,NNW,338,0.0,0.0,21,0.00,,,0.00,,2013-07-16 12:32:00,
2013-07-16 05:43:00,86.0,43.0,29.77,NNW,338,0.0,0.0,22,0.00,,,0.00,,2013-07-16 12:43:00,
2013-07-16 05:53:00,86.0,43.0,29.78,NNW,338,0.0,0.0,22,0.00,,,0.00,,2013-07-16 12:53:00,
2013-07-16 06:01:00,86.0,43.0,29.78,NNW,338,0.0,0.0,22,0.00,,,0.00,,2013-07-16 13:01:00,
2013-07-16 06:32:00,86.0,41.0,29.79,East,87,0.0,0.0,21,0.00,,,0.00,,2013-07-16 13:32:00,
2013-07-16 06:42:00,86.0,41.0,29.79,ESE,105,3.0,3.0,21,0.00,,,0.00,,2013-07-16 13:42:00,
2013-07-16 11:43:00,100.0,46.0,29.84,East,84,7.0,8.0,16,0.00,,,0.00,,2013-07-16 18:43:00,
2013-07-16 11:52:00,99.0,45.0,29.84,WSW,246,6.0,7.0,16,0.00,,,0.00,,2013-07-16 18:52:00,
2013-07-16 12:01:00,99.0,47.0,29.85,South,184,3.0,9.0,17,0.00,,,0.00,,2013-07-16 19:01:00,
2013-07-16 12:11:00,99.0,45.0,29.85,ENE,73,5.0,9.0,16,0.00,,,0.00,,2013-07-16 19:11:00,
2013-07-16 12:32:00,99.0,49.0,29.84,ENE,69,7.0,11.0,19,0.00,,,0.00,,2013-07-16 19:32:00,
2013-07-16 12:43:00,99.0,52.0,29.84,ENE,75,11.0,11.0,21,0.00,,,0.00,,2013-07-16 19:43:00,
2013-07-16 14:11:00,100.0,62.0,29.83,ENE,72,9.0,9.0,29,0.00,,,0.00,,2013-07-16 21:11:00,
2013-07-16 15:32:00,100.0,64.0,29.80,ENE,70,10.0,11.0,31,0.00,,,0.00,,2013-07-16 22:32:00,
2013-07-16 15:43:00,100.0,63.0,29.80,ENE,68,8.0,8.0,30,0.00,,,0.00,,2013-07-16 22:43:00,
2013-07-16 16:01:00,100.0,60.0,29.79,NE,52,7.0,12.0,27,0.00,,,0.00,,2013-07-16 23:01:00,
2013-07-16 16:11:00,100.0,59.0,29.80,East,100,11.0,11.0,26,0.00,,,0.00,,2013-07-16 23:11:00,
2013-07-16 17:33:00,100.0,58.0,29.78,ENE,62,7.0,8.0,25,0.00,,,0.00,,2013-07-17 00:33:00,
2013-07-16 17:52:00,100.0,59.0,29.78,SE,129,8.0,8.0,26,0.00,,,0.00,,2013-07-17 00:52:00,
2013-07-16 18:01:00,100.0,58.0,29.78,SSE,153,3.0,4.0,25,0.00,,,0.00,,2013-07-17 01:01:00,
2013-07-16 18:11:00,100.0,59.0,29.78,East,94,7.0,10.0,26,0.00,,,0.00,,2013-07-17 01:11:00,
2013-07-16 18:32:00,99.0,59.0,29.78,East,80,7.0,8.0,27,0.00,,,0.00,,2013-07-17 01:32:00,
2013-07-16 18:52:00,99.0,60.0,29.78,SE,134,8.0,8.0,28,0.00,,,0.00,,2013-07-17 01:52:00,
2013-07-16 19:11:00,98.0,60.0,29.79,ENE,65,6.0,6.0,29,0.00,,,0.00,,2013-07-17 02:11:00,
2013-07-16 19:32:00,97.0,61.0,29.80,East,80,7.0,8.0,31,0.00,,,0.00,,2013-07-17 02:32:00,
2013-07-16 19:53:00,96.0,60.0,29.80,East,98,6.0,6.0,31,0.00,,,0.00,,2013-07-17 02:53:00,
2013-07-16 20:01:00,96.0,61.0,29.80,East,86,7.0,7.0,32,0.00,,,0.00,,2013-07-17 03:01:00,
2013-07-16 20:11:00,96.0,62.0,29.81,East,91,8.0,8.0,33,0.00,,,0.00,,2013-07-17 03:11:00,
2013-07-16 20:43:00,94.0,62.0,29.82,ENE,73,8.0,8.0,35,0.00,,,0.00,,2013-07-17 03:43:00,
2013-07-16 20:52:00,94.0,62.0,29.82,ENE,76,7.0,10.0,35,0.00,,,0.00,,2013-07-17 03:52:00,
2013-07-16 21:11:00,93.0,64.0,29.83,East,80,8.0,8.0,39,0.00,,,0.00,,2013-07-17 04:11:00,
2013-07-16 21:22:00,93.0,66.0,29.84,NE,44,11.0,11.0,41,0.00,,,0.00,,2013-07-17 04:22:00,
2013-07-16 21:42:00,92.0,65.0,29.85,ENE,72,9.0,9.0,41,0.00,,,0.00,,2013-07-17 04:42:00,
2013-07-16 21:53:00,92.0,65.0,29.85,East,91,9.0,9.0,41,0.00,,,0.00,,2013-07-17 04:53:00,
2013-07-16 22:01:00,92.0,66.0,29.85,NE,46,9.0,9.0,42,0.00,,,0.00,,2013-07-17 05:01:00,
2013-07-16 22:11:00,92.0,66.0,29.85,East,83,6.0,10.0,42,0.00,,,0.00,,2013-07-17 05:11:00,
2013-07-16 22:32:00,91.0,66.0,29.85,ENE,66,8.0,9.0,44,0.00,,,0.00,,2013-07-17 05:32:00,
2013-07-16 22:52:00,91.0,67.0,29.86,ESE,105,4.0,4.0,45,0.00,,,0.00,,2013-07-17 05:52:00,
2013-07-16 23:01:00,90.0,67.0,29.87,SSW,198,5.0,5.0,47,0.00,,,0.00,,2013-07-17 06:01:00,
2013-07-16 23:11:00,90.0,67.0,29.87,SSE,155,5.0,5.0,47,0.00,,,0.00,,2013-07-17 06:11:00,
2013-07-16 23:32:00,89.0,67.0,29.88,South,176,4.0,4.0,48,0.00,,,0.00,,2013-07-17 06:32:00,
2013-07-16 23:52:00,88.0,66.0,29.89,South,177,0.0,2.0,48,0.00,,,0.00,,2013-07-17 06:52:00,